sat.trackr.live / text

‹ back to catalog

STARLINK-1622

NORAD 46128 · 2020-057M

PAYLOAD ACTIVE UNKNOWN

§ Identity

Operator
Country
US
Launch date
2020-08-18
Launch site
AFETR
Launch vehicle
Mass (kg)
RCS (m²)

Purposes: comms

External: N2YO · Heavens-Above · Gunter

§ Orbital elements

Epoch: 2026-05-24T21:10:13.312128Z

Period
91.17 min
Inclination
53.0163°
Eccentricity
0.0006875
Mean motion
15.79517613 rev/d
Perigee alt
327.2 km
Apogee alt
336.4 km
Semi-major
6,709.9 km
B*
6.9290e-4
RAAN
206.3425°
Arg perigee
13.9768°
Mean anomaly
346.1442°
Rev number
31,934

§ Raw data

STARLINK-16221 46128U 20057M   26144.88209852  .00129989  00000+0  69290-3 0  99902 46128  53.0163 206.3425 0006875  13.9768 346.1442 15.79517613319342

JSON: /api/v1/satellites/46128 · /tle

For live sub-satellite position, see the globe view (requires WebGL).

§ Visibility from observer

Set your observer location to see the next 7 days of passes ≥ 10°. The values pass through the URL so the page stays shareable.

No JS? Fill the form by hand. The geolocation button needs JavaScript.